sat.trackr.live / text

‹ back to catalog

STARLINK-6203

NORAD 56899 · 2023-083Z

PAYLOAD ACTIVE UNKNOWN

§ Identity

Operator
Country
US
Launch date
2023-06-12
Launch site
AFETR
Launch vehicle
Mass (kg)
RCS (m²)

Purposes: comms

External: N2YO · Heavens-Above · Gunter

§ Orbital elements

Epoch: 2026-09-20T17:35:36.551616Z

Period
94.27 min
Inclination
43.0021°
Eccentricity
0.0000098
Mean motion
15.27533707 rev/d
Perigee alt
483.1 km
Apogee alt
483.3 km
Semi-major
6,861.3 km
B*
1.0758e-4
RAAN
59.9460°
Arg perigee
148.8675°
Mean anomaly
211.2183°
Rev number
18,160

§ Raw data

STARLINK-62031 56899U 23083Z   26263.73306194  .00002696  00000+0  10758-3 0  99912 56899  43.0021  59.9460 0000098 148.8675 211.2183 15.27533707181602

JSON: /api/v1/satellites/56899 · /tle

For live sub-satellite position, see the globe view (requires WebGL).

§ Visibility from observer

Set your observer location to see the next 7 days of passes ≥ 10°. The values pass through the URL so the page stays shareable.

No JS? Fill the form by hand. The geolocation button needs JavaScript.